San Juan, PR

5:08 AM AST on July 21, 2017 (GMT -0400)
Luis Munoz Marin International

Weather History for TJSJ - June, 2013

Change the Weather History Date:

Monday, June 10, 2013

  Actual Average Record
Temperature  
Mean Temperature 82 °F 83 °F  
Max Temperature 86 °F 89 °F 95 °F (1982)
Min Temperature 78 °F 78 °F 71 °F (1957)
Degree Days  
Heating Degree Days 0 0  
Month to date heating degree days 0 0  
Since 1 June heating degree days 0 0  
Since 1 July heating degree days 0 0  
Cooling Degree Days 17 18  
Month to date cooling degree days 172 180  
Year to date cooling degree days 2419 2345  
Since 1 June cooling degree days 172 180  
Growing Degree Days 32 (Base 50)    
Moisture  
Dew Point 74 °F    
Average Humidity 78    
Maximum Humidity 85    
Minimum Humidity 70    
Precipitation  
Precipitation 0.06 in 0.15 in 1.24 in (2004)
Month to date precipitation 1.16 1.63  
Year to date precipitation 25.69 20.31  
Sea Level Pressure  
Sea Level Pressure 30.04 in    
Wind  
Wind Speed 12 mph (East)    
Max Wind Speed 23 mph    
Max Gust Speed 28 mph    
Visibility 10 miles    
Events Rain    
T = Trace of Precipitation, MM = Missing Value Source: NWS Daily Summary

Daily Weather History Graph

Daily Weather History Graph

Search for Another Location

Airport or City:

Trip Planner

Search our weather history database for the weather conditions in past years. The results will help you decide how hot, cold, wet, or windy it might be!

Date:

Astronomy

Jun. 10, 2013 Rise Set
Actual Time 5:47 AM AST 7:00 PM AST
Civil Twilight 5:22 AM AST 7:24 PM AST
Nautical Twilight 4:54 AM AST 7:52 PM AST
Astronomical Twilight 4:24 AM AST 8:22 PM AST
Moon 7:21 AM AST (6/10) 8:37 PM AST (6/10)
Length of Visible Light 14h 01m
Length of Day
13h 13m
Waxing Crescent, 4% of the Moon is Illuminated
Jun 10
Waxing Crescent
Jun 16
First Quarter
Jun 23
Full
Jun 30
Last Quarter
Jul 8
New

Hourly Weather History & Observations

Time (AST) Temp. Heat Index Dew Point Humidity Pressure Visibility Wind Dir Wind Speed Gust Speed Precip Events Conditions
12:56 AM 80.1 °F 84.5 °F 73.9 °F 81% 30.04 in 10.0 mi East 6.9 mph - N/A   Scattered Clouds
1:56 AM 78.1 °F - 73.0 °F 84% 30.02 in 10.0 mi ESE 8.1 mph - 0.02 in   Scattered Clouds
2:56 AM 78.1 °F - 73.0 °F 84% 30.01 in 10.0 mi ESE 4.6 mph - N/A   Scattered Clouds
3:56 AM 78.1 °F - 75.0 °F 90% 30.01 in 8.0 mi East 8.1 mph - 0.04 in Rain Light Rain
4:56 AM 79.0 °F - 75.0 °F 88% 30.01 in 10.0 mi East 6.9 mph - 0.00 in Rain Light Rain
5:56 AM 79.0 °F - 75.0 °F 88% 30.02 in 10.0 mi East 9.2 mph - 0.00 in   Scattered Clouds
6:56 AM 80.1 °F 85.1 °F 75.0 °F 85% 30.04 in 10.0 mi East 11.5 mph 17.3 mph 0.00 in   Mostly Cloudy
7:56 AM 81.0 °F 86.2 °F 73.9 °F 79% 30.05 in 10.0 mi East 15.0 mph - N/A   Mostly Cloudy
8:56 AM 82.9 °F 89.4 °F 73.9 °F 74% 30.06 in 10.0 mi ENE 18.4 mph - N/A   Scattered Clouds
9:56 AM 84.9 °F 93.3 °F 75.0 °F 72% 30.07 in 10.0 mi ENE 19.6 mph 24.2 mph N/A   Scattered Clouds
10:56 AM 84.9 °F 93.3 °F 75.0 °F 72% 30.07 in 10.0 mi ENE 16.1 mph 24.2 mph N/A   Scattered Clouds
11:56 AM 84.9 °F 93.3 °F 75.0 °F 72% 30.06 in 10.0 mi ENE 15.0 mph 23.0 mph N/A   Scattered Clouds
12:56 PM 84.0 °F 91.9 °F 75.0 °F 74% 30.05 in 10.0 mi ENE 15.0 mph 25.3 mph N/A   Mostly Cloudy
1:56 PM 84.9 °F 92.1 °F 73.9 °F 69% 30.04 in 10.0 mi East 20.7 mph 26.5 mph N/A   Mostly Cloudy
2:56 PM 84.9 °F 92.1 °F 73.9 °F 69% 30.03 in 10.0 mi East 19.6 mph 25.3 mph N/A   Mostly Cloudy
3:56 PM 82.0 °F 87.9 °F 73.9 °F 76% 30.03 in 10.0 mi East 8.1 mph - N/A   Mostly Cloudy
4:56 PM 82.0 °F 87.9 °F 73.9 °F 76% 30.03 in 9.0 mi ENE 15.0 mph - N/A   Overcast
5:56 PM 82.0 °F 87.9 °F 73.9 °F 76% 30.02 in 9.0 mi ENE 13.8 mph - N/A   Mostly Cloudy
6:56 PM 81.0 °F 85.8 °F 73.0 °F 77% 30.03 in 9.0 mi East 10.4 mph - N/A   Mostly Cloudy
7:56 PM 80.1 °F 84.2 °F 73.0 °F 79% 30.05 in 10.0 mi East 12.7 mph - N/A   Scattered Clouds
8:56 PM 81.0 °F 86.2 °F 73.9 °F 79% 30.06 in 10.0 mi East 11.5 mph - N/A   Scattered Clouds
9:56 PM 81.0 °F 86.2 °F 73.9 °F 79% 30.06 in 10.0 mi East 10.4 mph - N/A   Scattered Clouds
10:56 PM 80.1 °F 84.5 °F 73.9 °F 81% 30.07 in 10.0 mi East 11.5 mph - N/A   Scattered Clouds
11:56 PM 80.1 °F 84.5 °F 73.9 °F 81% 30.07 in 10.0 mi East 8.1 mph - N/A   Scattered Clouds